Location: Zagreb
(45.8000°N, 16.0000°E)
Time: 20:32:36
(UTC+01:00)

deb Explorer IX - Pass Details

Date: 04 October 2020
Orbit: 537 x 1106 km, 38.8° (Epoch: 30 October)

Event Time Altitude Azimuth Distance (km) Brightness Sun altitude
Rises 16:33:09 0° 236° (SW) 3,451 ? 18.6°
Reaches altitude 10° 16:36:08 10° 226° (SW) 2,409 ? 18.1°
Maximum altitude 16:40:59 30° 167° (SSE) 1,296 ? 17.4°
Drops below altitude 10° 16:45:13 10° 106° (ESE) 2,088 ? 16.7°
Sets 16:47:37 0° 96° (E) 2,920 ? 16.3°
